TimeEDT,TemperatureF,Dew PointF,Humidity,Sea Level PressureIn,VisibilityMPH,Wind Direction,Wind SpeedMPH,Gust SpeedMPH,PrecipitationIn,Events,Conditions,WindDirDegrees,DateUTC
12:15 AM,53.6,50.0,88,30.26,10.0,Calm,Calm,-,N/A,,Clear,0,2013-08-17 04:15:00
12:35 AM,53.6,50.0,88,30.26,10.0,Calm,Calm,-,N/A,,Clear,0,2013-08-17 04:35:00
12:55 AM,51.8,50.0,94,30.26,10.0,Calm,Calm,-,N/A,,Clear,0,2013-08-17 04:55:00
1:15 AM,51.8,50.0,94,30.26,7.0,Calm,Calm,-,N/A,,Clear,0,2013-08-17 05:15:00
1:35 AM,51.8,50.0,94,30.27,7.0,Calm,Calm,-,N/A,,Clear,0,2013-08-17 05:35:00
1:55 AM,51.8,50.0,94,30.27,7.0,Calm,Calm,-,N/A,,Clear,0,2013-08-17 05:55:00
2:15 AM,51.8,48.2,88,30.26,7.0,Calm,Calm,-,N/A,,Clear,0,2013-08-17 06:15:00
2:35 AM,50.0,46.4,87,30.26,7.0,Calm,Calm,-,N/A,,Clear,0,2013-08-17 06:35:00
2:55 AM,50.0,48.2,94,30.26,4.0,ENE,3.5,-,N/A,,Clear,60,2013-08-17 06:55:00
3:15 AM,50.0,46.4,87,30.26,2.5,Calm,Calm,-,N/A,,Clear,0,2013-08-17 07:15:00
3:35 AM,50.0,48.2,94,30.27,0.5,NNE,4.6,-,N/A,Fog,Fog,20,2013-08-17 07:35:00
3:55 AM,50.0,46.4,87,30.26,1.0,Calm,Calm,-,N/A,,Mist,0,2013-08-17 07:55:00
4:15 AM,50.0,46.4,87,30.26,0.5,Calm,Calm,-,N/A,Fog,Fog,0,2013-08-17 08:15:00
4:35 AM,50.0,46.4,87,30.27,0.5,NNE,3.5,-,N/A,Fog,Fog,30,2013-08-17 08:35:00
4:55 AM,50.0,46.4,87,30.26,0.2,Calm,Calm,-,N/A,Fog,Fog,0,2013-08-17 08:55:00
5:15 AM,50.0,46.4,87,30.27,0.2,Calm,Calm,-,N/A,Fog,Fog,0,2013-08-17 09:15:00
5:35 AM,48.2,46.4,93,30.27,0.2,NE,4.6,-,N/A,Fog,Fog,50,2013-08-17 09:35:00
5:55 AM,48.2,46.4,93,30.27,0.2,NNE,3.5,-,N/A,Fog,Fog,30,2013-08-17 09:55:00
6:15 AM,46.4,44.6,93,30.27,0.2,NNE,4.6,-,N/A,Fog,Fog,30,2013-08-17 10:15:00
6:35 AM,46.4,44.6,93,30.28,0.2,NNE,3.5,-,N/A,Fog,Fog,30,2013-08-17 10:35:00
6:55 AM,46.4,44.6,93,30.28,0.2,Calm,Calm,-,N/A,Fog,Fog,0,2013-08-17 10:55:00
7:15 AM,46.4,44.6,93,30.28,0.2,NNE,4.6,-,N/A,Fog,Fog,30,2013-08-17 11:15:00
7:35 AM,48.2,46.4,93,30.29,0.2,NE,3.5,-,N/A,Fog,Fog,50,2013-08-17 11:35:00
7:55 AM,50.0,46.4,87,30.29,0.2,Calm,Calm,-,N/A,Fog,Fog,0,2013-08-17 11:55:00
8:15 AM,50.0,46.4,87,30.29,0.2,Calm,Calm,-,N/A,Fog,Fog,0,2013-08-17 12:15:00
8:35 AM,51.8,50.0,94,30.29,0.2,Calm,Calm,-,N/A,Fog,Fog,0,2013-08-17 12:35:00
8:55 AM,51.8,50.0,94,30.29,0.2,NE,3.5,-,N/A,Fog,Fog,40,2013-08-17 12:55:00
9:15 AM,51.8,50.0,94,30.29,0.5,NNE,3.5,-,N/A,Fog,Fog,30,2013-08-17 13:15:00
9:35 AM,53.6,51.8,94,30.29,2.0,NE,4.6,-,N/A,,Overcast,50,2013-08-17 13:35:00
9:55 AM,55.4,53.6,94,30.29,10.0,Calm,Calm,-,N/A,,Scattered Clouds,0,2013-08-17 13:55:00
10:15 AM,60.8,51.8,72,30.29,10.0,ESE,4.6,-,N/A,,Scattered Clouds,110,2013-08-17 14:15:00
10:35 AM,62.6,50.0,63,30.29,10.0,ESE,6.9,-,N/A,,Clear,110,2013-08-17 14:35:00
10:55 AM,62.6,50.0,63,30.29,10.0,ESE,5.8,-,N/A,,Clear,120,2013-08-17 14:55:00
11:15 AM,64.4,51.8,64,30.29,10.0,ENE,3.5,-,N/A,,Scattered Clouds,70,2013-08-17 15:15:00
11:35 AM,64.4,51.8,64,30.29,10.0,SSE,6.9,-,N/A,,Mostly Cloudy,150,2013-08-17 15:35:00
11:55 AM,64.4,50.0,59,30.30,10.0,SSE,10.4,-,N/A,,Scattered Clouds,150,2013-08-17 15:55:00
12:15 PM,64.4,51.8,64,30.29,10.0,SSE,8.1,-,N/A,,Mostly Cloudy,150,2013-08-17 16:15:00
12:35 PM,64.4,51.8,64,30.29,10.0,SE,8.1,16.1,N/A,,Scattered Clouds,140,2013-08-17 16:35:00
12:55 PM,66.2,51.8,60,30.29,10.0,SE,5.8,-,N/A,,Scattered Clouds,130,2013-08-17 16:55:00
1:15 PM,66.2,51.8,60,30.28,10.0,SE,5.8,-,N/A,,Mostly Cloudy,140,2013-08-17 17:15:00
1:35 PM,68.0,51.8,56,30.28,10.0,ESE,8.1,-,N/A,,Mostly Cloudy,120,2013-08-17 17:35:00
1:55 PM,68.0,51.8,56,30.27,10.0,SSE,5.8,-,N/A,,Mostly Cloudy,150,2013-08-17 17:55:00
2:15 PM,68.0,53.6,60,30.26,10.0,SE,6.9,-,N/A,,Overcast,140,2013-08-17 18:15:00
2:35 PM,68.0,53.6,60,30.26,10.0,SE,3.5,-,N/A,,Overcast,130,2013-08-17 18:35:00
2:55 PM,68.0,51.8,56,30.26,10.0,SE,4.6,-,N/A,,Overcast,140,2013-08-17 18:55:00
3:15 PM,66.2,53.6,64,30.25,10.0,SE,3.5,-,N/A,,Overcast,130,2013-08-17 19:15:00
3:35 PM,64.4,53.6,68,30.26,10.0,ESE,5.8,-,N/A,,Overcast,110,2013-08-17 19:35:00
3:55 PM,64.4,53.6,68,30.26,10.0,ESE,4.6,-,N/A,,Overcast,120,2013-08-17 19:55:00
4:15 PM,64.4,53.6,68,30.26,10.0,ESE,4.6,-,N/A,,Overcast,110,2013-08-17 20:15:00
4:35 PM,64.4,53.6,68,30.26,10.0,Calm,Calm,-,N/A,,Overcast,0,2013-08-17 20:35:00
4:55 PM,62.6,55.4,77,30.27,4.0,Calm,Calm,-,N/A,,Haze,0,2013-08-17 20:55:00
5:15 PM,62.6,53.6,72,30.26,10.0,Calm,Calm,-,N/A,,Overcast,0,2013-08-17 21:15:00
5:35 PM,62.6,53.6,72,30.27,10.0,Calm,Calm,-,N/A,Rain,Rain,0,2013-08-17 21:35:00
5:55 PM,62.6,55.4,77,30.27,10.0,Calm,Calm,-,N/A,,Overcast,0,2013-08-17 21:55:00
6:15 PM,62.6,55.4,77,30.27,10.0,ENE,3.5,-,N/A,,Overcast,60,2013-08-17 22:15:00
6:35 PM,62.6,55.4,77,30.26,10.0,NE,3.5,-,N/A,,Overcast,50,2013-08-17 22:35:00
6:55 PM,60.8,55.4,82,30.26,10.0,NNE,4.6,-,N/A,,Overcast,30,2013-08-17 22:55:00
7:15 PM,60.8,55.4,82,30.26,10.0,NNE,4.6,-,N/A,,Overcast,30,2013-08-17 23:15:00
7:35 PM,60.8,55.4,82,30.26,10.0,NNE,4.6,-,N/A,,Overcast,30,2013-08-17 23:35:00
7:55 PM,60.8,55.4,82,30.26,10.0,NNE,4.6,-,N/A,,Overcast,30,2013-08-17 23:55:00
8:15 PM,60.8,55.4,82,30.26,10.0,Calm,Calm,-,N/A,,Overcast,0,2013-08-18 00:15:00
8:35 PM,60.8,55.4,82,30.26,10.0,ENE,3.5,-,N/A,,Overcast,60,2013-08-18 00:35:00
8:55 PM,60.8,53.6,77,30.26,10.0,Calm,Calm,-,N/A,,Overcast,0,2013-08-18 00:55:00
9:15 PM,60.8,53.6,77,30.26,10.0,ENE,6.9,-,N/A,,Overcast,70,2013-08-18 01:15:00
9:35 PM,60.8,53.6,77,30.27,10.0,NE,3.5,-,N/A,,Overcast,50,2013-08-18 01:35:00
9:55 PM,60.8,53.6,77,30.28,10.0,NE,3.5,-,N/A,,Overcast,50,2013-08-18 01:55:00
10:15 PM,60.8,53.6,77,30.27,10.0,ENE,5.8,-,N/A,,Light Drizzle,60,2013-08-18 02:15:00
10:35 PM,60.8,53.6,77,30.27,10.0,ENE,3.5,-,N/A,Rain,Rain,70,2013-08-18 02:35:00
10:55 PM,60.8,53.6,77,30.27,10.0,ENE,3.5,-,N/A,Rain,Light Rain,60,2013-08-18 02:55:00
11:15 PM,60.8,53.6,77,30.27,10.0,ENE,4.6,-,N/A,Rain,Light Rain,60,2013-08-18 03:15:00
11:35 PM,59.0,53.6,82,30.27,10.0,East,3.5,-,N/A,Rain,Light Rain,90,2013-08-18 03:35:00
11:55 PM,59.0,53.6,82,30.27,10.0,ENE,4.6,-,N/A,,Light Drizzle,60,2013-08-18 03:55:00